Theta_e
317 315 313 314 312 312 312 312 311 311 310 308 309 307 305 304 303 302 296 293 292 293 293 293 292 292 293 292 292 291 291 291 292 294 295 295 297 302 314 317 321 324 325 327 325 325 323 324 323 323 322 322 322 322 323 322 321 320 320 320 320 319 318 318 318 318 319 319 319 319 319 320 320 320 321 321 321 322 323 323 323 324 324 324 324
317 315 314 313 311 311 311 310 311 309 309 309 306 307 305 301 301 302 298 293 292 293 293 293 292 293 292 292 292 293 291 291 291 294 294 295 296 298 310 314 319 322 324 323 326 325 325 323 323 322 323 322 322 322 321 321 321 320 320 319 320 319 317 317 317 318 318 318 318 319 319 319 319 319 320 320 321 321 321 321 322 320 320 320 321
318 315 313 313 311 311 311 309 309 309 309 309 306 307 304 304 302 301 299 295 293 293 293 293 292 292 293 292 293 291 292 291 291 293 295 294 294 296 299 310 315 319 323 322 323 324 325 325 323 323 323 322 322 321 321 321 320 320 320 319 319 318 317 317 316 317 317 318 318 318 318 319 319 319 319 320 320 319 320 319 320 320 319 319 319
317 315 314 312 311 311 310 309 310 307 308 307 305 304 303 301 299 298 296 294 293 292 292 292 292 293 291 291 291 292 292 291 291 293 295 294 294 295 296 301 309 315 318 323 323 323 323 325 324 323 323 323 321 322 321 320 319 319 319 319 318 318 317 316 316 316 317 317 318 318 318 318 318 318 318 318 318 319 319 318 318 318 318 318 318
314 314 312 312 311 311 309 310 310 309 307 305 304 302 299 297 296 294 293 292 291 291 291 291 292 292 291 292 290 291 291 291 291 292 294 295 295 294 294 297 297 307 312 315 321 322 322 323 323 323 323 323 322 321 321 320 319 319 319 319 319 318 317 317 316 317 317 317 317 317 317 317 317 316 316 316 317 317 317 317 317 317 317 317 317
314 311 311 310 310 310 310 309 308 307 307 304 304 300 299 296 295 293 294 293 292 291 291 290 290 290 291 290 289 291 290 291 290 292 294 295 295 293 294 294 295 296 298 309 313 320 320 321 320 321 322 322 322 321 321 320 319 319 319 319 319 318 318 316 316 316 317 317 317 316 316 316 316 315 316 315 316 316 316 316 316 316 316 316 316
313 313 311 310 309 308 308 309 307 306 306 304 304 299 298 297 293 293 290 291 290 291 291 291 291 291 291 290 291 290 289 291 290 290 292 294 293 294 295 294 294 295 296 295 303 311 318 319 319 319 319 321 321 321 321 320 319 319 320 319 319 318 318 317 316 316 317 317 317 316 316 315 315 315 315 314 314 314 314 315 315 315 315 316 316
311 311 311 310 309 309 309 307 305 305 305 302 301 299 297 296 293 293 291 290 290 290 289 290 290 291 290 290 290 290 289 289 290 290 291 290 295 295 296 294 293 293 297 295 296 303 314 317 319 321 320 318 318 320 320 320 319 319 320 319 319 318 318 317 317 318 317 316 316 315 315 315 314 314 314 313 313 314 314 314 314 314 315 315 315
310 310 311 309 308 308 305 305 303 304 302 300 300 299 296 296 292 292 292 291 289 288 289 289 290 290 289 288 288 289 289 290 290 291 290 289 291 294 294 293 293 300 293 293 294 296 307 313 315 315 315 317 318 318 319 320 319 319 319 319 318 318 317 316 317 317 316 315 314 314 314 314 313 313 313 313 313 313 313 313 313 314 314 314 315
309 308 309 309 308 307 304 303 302 302 301 298 299 295 294 295 293 291 291 291 289 289 289 288 289 289 288 287 288 288 288 288 289 292 290 290 289 292 294 294 294 294 292 292 292 293 297 304 310 310 308 312 316 317 318 319 320 319 319 319 318 318 317 316 317 316 315 315 314 314 313 313 312 313 313 312 313 312 312 313 313 313 314 314 314
307 307 308 306 305 304 304 301 301 300 299 297 295 292 292 293 294 292 289 289 289 288 288 288 289 288 287 287 287 287 288 287 289 289 289 290 290 290 289 291 293 292 292 291 291 292 293 293 293 292 296 308 313 316 317 318 319 319 321 320 318 318 317 317 317 316 315 314 313 313 313 313 312 312 312 312 312 312 312 313 313 313 313 313 314
307 306 306 305 305 304 304 299 299 298 298 296 293 292 293 292 292 291 290 288 288 287 287 288 286 286 287 286 286 286 287 287 288 288 290 288 289 289 289 289 289 289 291 291 291 290 292 292 292 291 291 299 308 311 314 315 313 315 319 321 319 318 318 316 316 316 315 314 313 313 312 312 312 312 312 311 311 311 312 313 313 313 313 313 313
306 305 306 304 304 303 302 301 299 298 298 298 296 294 294 293 291 290 290 288 287 286 287 288 286 286 284 285 286 285 287 289 287 288 288 287 287 289 289 288 286 287 289 289 289 289 290 292 292 291 292 291 297 305 308 311 308 311 316 319 321 318 318 317 316 315 315 313 313 312 312 312 311 311 311 311 311 311 311 312 313 313 313 313 313
306 305 304 304 303 301 302 302 299 299 298 297 295 293 291 290 290 289 288 289 289 287 288 289 286 285 284 284 284 285 286 287 287 287 287 287 288 288 289 288 288 287 286 287 287 288 288 289 289 290 290 291 292 294 296 298 302 309 315 318 321 319 319 318 316 315 314 313 313 312 312 311 311 311 311 311 311 311 312 312 313 312 312 313 313
304 303 303 301 302 301 300 300 300 299 298 297 295 293 291 290 289 291 288 286 286 287 288 289 285 283 282 282 282 283 285 286 286 287 288 287 287 287 288 288 289 287 287 287 287 287 287 286 287 288 288 289 290 291 292 295 294 300 307 312 315 321 319 317 317 316 315 314 312 311 311 311 311 312 311 311 311 311 311 312 312 312 312 313 313
298 298 300 299 299 300 299 298 299 298 298 298 295 295 292 290 289 290 289 288 286 287 288 289 285 286 283 285 280 281 280 283 285 285 287 288 287 287 287 288 287 286 287 287 287 286 286 286 286 286 287 287 287 287 289 289 293 299 300 303 306 312 318 322 319 317 315 315 312 311 311 311 311 311 311 311 311 311 311 312 312 312 312 312 312
295 295 296 296 296 296 297 296 298 297 297 297 296 296 295 294 292 290 289 290 288 286 286 288 287 289 286 280 281 282 281 280 281 282 282 285 286 286 287 287 287 286 287 287 286 287 287 286 286 286 286 286 286 286 286 287 289 292 295 298 301 306 309 317 322 319 317 316 314 311 310 311 311 311 312 312 312 311 311 312 311 311 312 312 311
293 294 293 294 294 293 294 294 294 295 296 296 296 295 294 293 292 292 291 289 290 288 286 287 289 288 286 284 284 282 282 280 284 283 281 284 284 285 286 286 286 286 286 286 286 286 287 287 287 287 286 286 286 286 285 285 287 288 291 294 303 307 309 311 318 321 317 317 315 313 311 311 311 311 311 312 311 311 311 311 311 311 311 311 311
296 294 294 293 293 292 292 292 292 292 292 293 294 294 295 294 293 292 292 292 289 287 287 287 287 288 288 287 285 284 282 283 283 282 282 283 282 284 285 284 285 285 286 286 286 286 286 287 287 287 286 287 287 286 286 286 290 291 296 299 305 309 311 311 312 316 319 317 316 314 313 311 311 310 311 311 311 311 310 310 310 310 310 310 311
294 295 295 295 294 295 292 291 292 290 291 290 291 292 293 293 293 292 292 291 290 289 288 286 287 287 289 289 288 285 283 285 282 284 283 283 283 282 281 284 283 285 286 286 286 286 286 286 286 286 286 286 287 286 286 286 286 288 292 300 304 308 311 312 312 311 313 316 316 315 313 313 312 311 311 311 311 311 310 310 310 311 310 310 310
292 292 293 293 293 293 293 293 292 291 290 289 289 289 289 289 290 291 291 291 290 290 289 288 287 287 286 286 287 287 286 284 284 283 283 281 284 281 282 282 282 284 285 286 286 286 287 287 286 287 286 286 286 287 287 286 286 287 291 298 303 307 310 312 312 311 311 312 314 314 314 314 313 312 312 311 311 311 310 309 310 310 310 310 310
291 291 291 291 291 292 292 292 292 292 290 289 288 288 288 287 288 288 290 290 291 290 290 290 289 288 287 288 286 284 284 285 283 284 284 283 285 284 280 282 282 284 286 286 286 286 286 286 286 286 286 286 286 286 286 287 287 287 290 296 301 304 307 309 311 311 311 313 313 312 313 314 313 313 312 312 311 311 310 310 309 310 309 310 310
289 290 290 290 290 290 291 291 291 291 290 290 290 289 289 288 288 287 287 287 288 289 289 290 289 288 287 286 286 286 286 285 284 284 285 285 283 284 282 281 283 284 283 285 287 286 286 285 285 286 286 286 286 286 286 287 288 289 292 295 299 302 306 309 311 311 311 313 312 311 311 312 312 312 312 312 311 311 311 310 310 309 309 310 309
288 288 288 289 289 289 289 290 290 291 291 291 290 289 289 287 287 287 287 286 287 287 287 287 287 288 287 286 286 286 286 285 285 286 285 286 286 286 285 280 282 282 283 280 282 285 285 285 286 286 286 286 286 286 287 287 288 291 291 293 298 301 305 309 311 310 310 311 310 310 310 311 311 311 311 311 312 312 312 311 311 310 310 309 309
287 287 287 287 287 288 288 288 289 289 290 290 290 289 289 289 288 287 287 286 287 287 286 286 287 287 287 287 286 286 286 286 286 286 286 286 286 285 285 281 285 281 280 282 283 282 285 285 286 286 286 286 286 286 286 286 287 290 292 290 296 299 302 306 309 309 309 309 309 309 310 310 310 311 311 311 311 312 311 311 311 310 310 309 309
286 286 287 287 287 287 287 287 287 288 288 288 289 289 288 288 288 288 287 288 286 285 286 286 286 286 286 285 285 285 286 286 286 285 285 285 284 284 285 284 281 283 281 279 279 283 282 284 286 286 285 285 286 286 286 286 286 290 292 290 292 298 300 304 308 309 308 308 308 307 307 307 309 309 309 310 310 311 311 311 311 310 310 310 310
286 287 287 287 287 287 287 287 287 287 287 287 288 287 287 287 287 287 287 287 286 285 285 284 286 285 285 285 285 285 285 285 285 285 286 286 286 286 285 284 284 283 282 281 279 281 284 281 285 285 285 286 285 285 286 285 287 290 290 290 289 294 298 303 308 309 307 307 307 306 305 305 306 307 307 307 308 308 310 311 311 311 310 309 310
286 287 287 287 287 287 287 287 287 287 287 287 286 286 285 285 285 286 286 287 286 285 285 284 284 284 284 285 284 284 284 284 284 285 285 286 286 286 284 285 283 282 283 283 282 281 282 283 281 284 285 285 286 286 287 287 286 290 289 288 288 290 296 301 305 308 308 306 305 304 304 303 303 304 304 304 305 305 305 306 307 308 307 307 307
287 287 286 286 287 286 286 286 286 287 287 286 286 286 285 285 285 284 285 286 285 285 285 285 285 284 284 284 284 285 284 284 284 284 284 284 284 285 285 286 285 283 282 282 284 282 281 283 283 283 285 286 286 286 286 286 287 288 287 287 288 288 293 299 303 307 308 307 305 304 303 302 302 302 303 303 303 303 304 304 306 307 307 306 307
286 286 286 285 286 286 285 285 285 285 285 286 286 286 286 286 286 285 285 284 284 284 285 285 284 284 284 284 283 283 284 283 283 283 283 284 283 283 284 285 285 285 284 282 283 284 281 281 283 283 282 284 285 286 286 286 289 288 286 287 287 288 293 296 301 304 307 307 305 304 304 302 301 301 301 301 302 302 303 303 304 306 306 306 307
284 284 284 284 284 284 284 284 285 285 285 285 285 285 286 285 286 286 286 285 285 285 285 285 286 285 284 284 284 283 284 283 283 283 283 283 283 283 283 284 284 285 285 284 282 285 285 284 283 284 284 283 285 285 285 285 287 288 286 286 287 289 291 292 297 301 305 305 304 302 303 303 301 300 300 300 301 302 302 303 303 304 305 305 305
282 282 282 282 283 283 283 284 284 284 284 284 284 285 285 285 285 285 286 286 285 285 286 286 286 286 285 284 284 284 284 284 283 283 283 282 283 283 283 283 283 283 284 283 283 283 283 285 283 284 285 284 283 284 284 285 286 288 286 286 286 289 289 289 293 297 301 303 303 302 302 302 301 300 300 300 301 301 301 302 303 303 303 303 303
281 282 282 281 281 281 282 282 282 283 283 283 284 284 284 284 284 284 285 285 285 285 285 285 286 285 285 285 285 285 285 284 283 283 283 282 282 282 282 282 282 283 282 282 282 283 284 282 283 283 284 283 282 283 283 284 283 284 287 285 286 286 286 287 289 293 298 301 302 302 302 301 301 300 300 299 299 300 300 301 302 301 301 302 302
281 281 281 282 281 281 281 281 282 282 282 282 283 283 283 283 283 285 284 284 284 284 285 284 285 286 285 285 285 285 285 284 284 284 284 283 282 282 281 281 282 283 282 282 283 283 283 283 281 280 280 282 283 282 283 283 283 283 283 285 285 285 286 286 287 289 295 298 300 301 301 301 301 301 300 298 298 299 300 301 300 300 300 301 301
281 280 281 281 281 281 281 281 281 281 282 281 281 282 282 282 283 283 284 283 283 283 283 284 284 285 285 285 285 285 286 285 285 284 284 284 284 283 283 282 282 282 282 282 283 282 283 283 283 282 281 280 282 283 282 284 284 284 283 284 284 285 286 286 286 287 292 296 299 300 300 300 300 300 300 299 298 299 298 299 300 299 299 299 300
280 280 280 280 280 280 280 280 280 281 281 281 281 281 281 281 281 282 283 283 283 283 283 283 283 284 284 284 284 285 285 284 284 284 285 285 284 284 283 283 283 282 282 282 282 282 283 282 283 282 281 280 281 282 282 283 283 283 283 283 284 284 284 285 285 285 288 294 297 299 299 299 299 299 299 299 298 298 298 298 299 299 299 298 298
279 279 279 279 279 279 280 280 280 280 280 281 281 281 281 281 280 281 281 282 282 283 283 283 284 283 283 283 284 284 284 283 284 284 284 284 284 284 284 284 284 284 283 283 282 282 282 281 283 281 281 280 281 280 281 281 281 282 281 282 283 283 283 283 284 284 287 290 293 296 297 298 298 298 298 299 298 298 298 298 298 298 298 298 297
279 279 279 279 279 279 279 279 279 279 280 280 280 280 280 280 280 280 281 281 281 282 282 283 283 283 283 283 283 284 283 283 283 284 284 284 284 284 284 284 284 284 283 283 283 282 282 282 282 282 280 280 280 279 280 281 281 281 280 281 281 281 281 281 281 283 283 284 285 289 293 295 296 297 298 298 299 298 298 297 297 298 297 297 296
278 278 278 278 279 279 279 279 279 279 279 280 280 280 280 280 280 280 280 280 280 281 281 282 282 282 283 283 283 283 283 283 283 283 284 284 284 284 284 284 284 284 283 283 283 282 282 282 282 282 282 281 280 281 280 281 281 282 281 280 279 281 280 281 281 281 282 283 285 289 290 292 293 294 296 297 298 298 298 297 297 297 296 295 296
278 278 278 278 279 279 279 279 279 279 279 279 279 279 279 279 279 279 279 279 280 280 280 281 281 282 282 283 283 283 283 283 283 283 283 283 284 283 284 284 283 283 283 283 283 283 282 282 282 281 282 281 279 279 279 278 279 279 281 280 280 279 279 280 281 281 281 281 281 282 288 291 292 293 295 296 296 297 297 296 296 295 294 295 296
278 277 277 277 277 278 278 278 278 279 279 279 279 279 279 279 279 279 279 280 280 280 280 280 281 281 281 281 282 282 283 284 285 286 285 286 284 283 283 283 283 283 283 283 283 283 282 282 282 282 282 280 280 280 278 277 278 280 280 280 280 281 281 280 280 281 281 280 280 281 281 285 286 286 288 289 291 294 294 295 295 294 294 295 296
276 276 276 276 277 276 277 277 277 278 278 279 280 282 282 280 280 280 280 280 280 280 280 280 280 280 281 281 282 283 284 285 285 286 287 287 287 286 284 284 283 283 283 282 282 282 282 282 282 282 281 281 281 280 280 280 280 280 280 280 280 281 279 279 280 280 281 280 279 278 280 282 284 284 285 285 287 290 291 292 292 292 293 295 296
274 274 275 274 275 275 275 275 275 276 277 277 280 281 282 283 281 280 279 279 279 279 279 279 279 280 280 281 281 282 283 283 283 285 287 287 287 288 288 288 287 284 283 282 282 282 282 282 282 282 282 282 282 282 281 281 280 280 280 280 280 280 279 278 278 280 281 280 279 278 278 280 282 282 283 284 285 287 289 290 293 294 294 295 295
273 273 273 273 273 273 273 273 273 274 274 276 278 279 280 281 281 279 278 278 278 278 279 279 279 279 279 280 280 281 281 281 281 281 283 285 286 287 288 288 288 289 288 285 283 282 282 281 281 281 282 282 282 283 282 281 280 279 280 280 280 280 280 279 280 280 280 281 279 278 278 281 281 281 281 283 284 285 287 290 293 294 295 295 295
271 270 271 270 270 270 270 270 270 271 271 274 276 277 278 279 280 279 277 277 277 277 278 278 278 278 279 279 279 280 281 282 282 281 281 281 284 285 286 287 287 288 289 290 289 286 284 283 282 282 282 282 282 283 284 282 282 280 280 280 280 280 281 280 281 282 279 281 280 279 278 280 280 279 280 282 283 284 285 290 292 294 295 295 295
268 268 267 267 267 267 268 268 268 268 268 271 274 275 276 277 277 277 275 275 276 276 277 277 278 278 278 278 278 278 279 280 280 280 280 280 280 281 281 282 283 284 286 288 288 288 288 285 284 283 284 284 283 284 285 284 282 280 280 280 280 280 280 280 282 282 279 281 279 279 278 279 280 279 278 280 282 282 283 287 291 293 294 294 294
265 265 265 264 265 265 266 266 266 265 265 270 273 274 275 275 276 276 273 274 274 274 275 276 277 277 277 278 278 278 278 278 279 280 280 280 280 280 280 280 281 282 282 282 283 284 285 286 286 285 285 286 285 285 286 285 284 283 283 282 282 281 282 282 282 282 280 280 281 280 278 281 280 278 278 280 280 281 282 286 289 291 293 294 294
264 264 264 264 264 263 264 264 263 263 264 270 271 272 273 274 275 271 271 271 271 272 272 274 276 276 277 277 277 277 277 277 280 282 282 281 280 279 279 279 280 281 281 284 286 286 285 284 285 285 286 287 288 286 286 286 285 285 285 284 283 282 281 279 279 281 280 280 280 280 279 280 279 278 278 280 280 279 280 281 286 290 292 293 293
262 262 262 262 262 262 262 262 262 262 263 266 270 271 272 273 272 269 269 270 270 270 270 271 272 273 274 275 276 276 277 277 280 282 283 283 280 280 280 279 280 280 280 282 285 287 288 288 289 289 289 290 290 291 291 291 288 286 283 281 280 281 280 278 279 279 280 279 279 280 280 279 278 279 279 279 279 279 279 279 280 287 290 292 293
261 261 261 261 261 261 261 261 261 261 262 265 269 270 271 272 272 269 269 269 269 269 270 271 271 272 273 276 276 275 275 275 279 281 282 281 279 279 279 279 278 278 279 281 282 283 287 287 288 288 289 289 290 291 291 291 291 289 283 280 281 282 279 279 278 279 280 279 278 281 279 279 279 278 277 275 277 278 279 279 279 281 287 289 292
260 260 260 260 260 260 261 261 263 262 261 264 268 269 270 271 270 268 268 268 268 268 269 269 271 272 272 273 275 275 275 276 279 281 281 280 278 278 278 278 278 278 279 280 280 280 281 281 282 283 284 286 286 286 286 289 290 289 287 284 284 282 279 279 279 280 279 279 280 281 278 278 278 276 277 274 273 275 277 278 279 279 280 284 287
Wind_Speed
6 6 5 6 5 5 5 5 5 5 5 5 6 6 5 5 6 6 4 4 2 3 3 3 1 2 4 3 3 3 3 3 3 3 2 1 0 1 3 3 4 4 5 6 9 10 7 8 9 8 7 9 8 8 8 7 6 5 4 4 4 3 2 3 4 4 4 4 5 5 5 5 6 6 6 5 5 5 4 5 4 5 5 4 4
6 5 7 6 5 5 5 5 5 5 5 6 5 6 6 5 5 5 5 4 3 3 3 3 3 3 2 4 3 4 4 4 4 4 3 2 1 0 2 3 3 4 5 6 6 10 10 10 9 9 9 8 8 9 7 7 8 7 7 4 5 4 3 3 4 5 5 5 5 6 6 6 6 6 7 6 6 6 5 5 5 4 3 3 3
7 7 6 6 6 6 5 5 5 5 5 5 4 5 5 6 6 6 6 5 5 4 4 4 3 3 3 3 5 3 4 3 3 3 3 3 2 1 0 3 2 3 4 4 5 7 12 11 11 10 9 8 8 8 8 8 8 6 6 7 5 5 4 4 4 5 5 5 6 6 6 7 6 6 6 6 6 6 6 5 5 5 4 4 4
7 7 7 6 6 6 6 6 6 5 5 5 5 4 5 4 4 4 4 4 5 4 4 5 4 4 3 4 3 4 4 4 4 3 3 3 3 2 1 0 3 2 3 3 1 2 4 3 10 10 10 10 10 10 9 8 7 8 8 7 7 6 6 5 5 5 6 7 7 7 7 7 6 6 6 6 7 6 5 5 5 5 4 4 5
6 6 6 6 6 7 6 6 6 6 6 5 5 4 4 4 4 2 3 3 4 4 3 4 5 5 4 4 4 4 4 3 4 3 4 4 4 3 2 0 0 2 3 4 4 3 2 3 5 11 11 12 10 10 10 8 8 8 8 8 7 7 5 6 6 7 8 8 8 8 7 7 6 6 6 6 6 6 5 5 5 5 5 5 5
6 5 6 6 6 6 7 6 6 5 5 6 6 5 6 4 5 4 4 5 6 5 5 5 5 4 4 4 4 5 4 4 5 5 4 4 4 3 3 1 1 1 0 3 4 3 2 2 3 2 11 10 10 11 11 10 8 9 9 10 10 8 8 6 6 8 8 8 8 8 7 6 6 5 6 6 6 5 5 5 5 5 6 6 6
6 7 6 6 6 6 6 6 6 5 6 5 6 6 6 7 6 5 3 4 4 4 5 6 5 6 6 4 6 5 3 5 4 4 4 4 3 4 4 3 2 1 1 1 2 3 3 2 1 1 3 8 8 10 10 9 10 10 10 9 8 9 9 8 8 8 9 9 9 8 7 7 7 7 6 6 6 5 5 5 6 6 6 6 6
6 6 6 6 6 6 6 5 5 5 5 5 5 6 5 5 5 6 6 5 4 6 4 6 5 6 4 5 4 4 5 4 5 4 5 4 5 4 4 3 3 3 2 1 1 1 3 3 4 4 4 2 5 7 9 10 10 10 10 11 11 10 9 9 10 11 10 9 8 8 8 8 7 7 7 6 6 6 6 6 6 7 6 6 6
6 6 7 6 6 6 6 5 4 6 6 5 6 6 6 6 4 5 5 7 6 5 5 5 6 4 4 4 4 4 4 6 5 6 3 4 4 5 4 4 3 4 3 2 1 1 2 2 3 4 4 4 2 6 7 9 10 10 11 10 10 10 10 10 11 11 10 10 9 9 8 7 8 8 8 7 7 7 7 7 6 6 6 6 7
5 5 6 5 5 5 4 5 5 5 5 5 6 4 4 6 6 5 6 5 6 6 6 4 3 4 4 4 4 3 4 4 4 4 5 5 5 5 6 5 4 5 4 3 3 2 1 1 2 2 2 1 0 2 7 3 5 9 12 13 13 12 12 11 12 12 9 9 10 10 9 8 10 9 9 9 8 7 7 7 7 7 7 7 6
3 4 5 5 4 4 5 4 5 5 5 5 4 4 4 4 6 6 3 3 3 4 4 3 3 2 3 4 2 4 4 4 4 4 5 5 5 4 3 6 5 4 4 4 4 3 3 2 1 1 1 1 2 2 1 5 5 4 5 12 14 13 13 13 14 12 9 11 11 10 10 10 11 10 10 9 8 8 8 8 7 7 7 7 7
3 3 3 3 3 4 5 4 4 5 5 5 5 6 8 6 6 5 5 3 0 3 3 4 1 0 2 3 3 3 5 4 4 5 5 5 4 3 6 6 5 4 4 4 4 4 4 4 3 3 3 3 4 4 4 3 2 4 7 9 14 14 15 14 15 12 12 12 12 10 11 11 11 11 10 9 9 9 8 8 8 8 8 7 7
1 1 1 1 1 1 1 2 3 5 5 7 7 8 6 6 5 3 6 5 4 2 3 4 4 1 2 2 4 3 3 2 5 6 6 5 4 7 6 4 4 5 6 5 4 4 4 4 5 4 4 4 4 5 4 4 3 6 8 10 12 16 16 15 15 13 13 13 12 12 12 12 12 12 11 10 9 9 9 9 8 8 7 7 7
2 1 1 1 1 1 2 3 3 5 4 1 2 2 3 4 3 3 2 6 6 4 4 6 1 5 3 3 4 6 5 4 5 7 6 5 7 7 5 6 7 6 4 4 5 5 5 5 4 5 4 4 4 6 4 4 5 7 10 11 12 16 17 17 17 15 14 14 13 13 13 13 13 13 12 11 10 10 10 10 9 9 9 8 8
3 2 1 0 0 1 2 1 2 2 3 3 3 4 5 5 5 6 4 1 3 1 5 7 5 2 1 2 4 2 4 5 7 7 6 7 6 6 6 6 8 6 6 5 6 6 5 5 5 5 5 5 6 5 5 5 6 7 9 10 11 13 16 18 18 17 15 15 14 15 15 14 14 13 13 12 11 11 11 10 10 10 10 9 9
4 3 3 3 1 1 0 1 2 2 3 4 4 5 4 4 4 6 4 4 3 5 6 7 4 6 3 7 3 1 6 8 9 5 7 9 8 8 5 7 6 5 5 7 7 6 6 5 6 6 6 6 6 6 6 6 8 9 9 10 10 13 14 14 16 19 17 16 16 15 16 16 15 14 13 13 12 12 12 11 11 11 10 10 9
4 4 3 3 3 2 1 1 0 1 2 3 4 6 5 5 5 5 5 7 7 4 4 6 8 7 5 2 1 2 6 5 1 6 3 6 9 8 7 7 7 7 7 8 6 7 7 6 7 6 7 6 6 6 6 6 7 6 8 10 11 12 12 15 15 17 19 18 17 15 16 17 15 15 14 14 13 13 12 12 11 11 11 10 10
4 4 4 3 3 3 2 1 1 1 1 3 3 2 3 4 6 7 7 6 7 6 5 4 9 9 5 3 3 3 2 2 1 7 1 6 4 5 7 7 5 7 7 7 8 8 6 8 7 8 7 6 6 6 7 7 6 7 7 8 13 14 14 14 17 17 20 20 19 17 17 17 16 15 15 15 14 14 13 12 12 12 12 11 11
9 7 6 5 4 3 2 1 1 1 1 1 3 4 4 4 3 3 6 6 4 6 7 7 3 6 7 9 6 2 1 1 4 2 7 1 3 6 7 5 5 6 8 9 8 7 7 7 8 8 7 7 7 7 6 7 8 8 11 12 15 16 16 16 15 17 18 22 21 19 19 18 17 16 16 15 15 15 14 14 14 14 13 12 12
11 10 10 10 9 8 5 3 2 1 0 2 3 4 3 3 3 3 4 4 5 7 7 6 7 5 7 12 11 6 3 1 2 2 4 7 5 1 3 5 5 7 8 9 9 9 9 8 8 7 7 7 7 7 7 7 7 7 8 14 17 18 18 17 16 16 17 19 22 21 20 20 19 18 17 16 15 15 15 15 15 14 14 13 13
10 10 10 11 10 8 8 7 6 4 1 2 2 2 3 4 4 4 5 5 5 6 6 7 6 8 4 6 7 10 8 6 2 1 4 4 9 4 5 1 3 7 9 10 8 9 11 10 8 8 8 8 8 8 8 7 8 7 8 14 18 20 20 20 18 17 18 18 22 22 22 21 20 19 18 17 16 16 16 16 15 15 14 14 14
9 10 11 11 10 10 9 8 7 6 4 2 3 3 3 3 4 4 4 5 5 5 7 7 7 6 7 5 5 4 5 7 6 6 5 6 12 9 4 6 7 8 10 10 12 11 8 7 8 9 9 9 8 9 8 9 8 7 9 14 17 19 21 21 20 19 20 19 19 21 22 22 21 20 19 18 18 17 16 16 16 16 15 15 14
8 9 9 10 9 9 8 8 7 6 7 6 4 4 4 3 4 3 4 5 6 6 6 6 7 6 6 6 8 8 9 7 7 7 8 9 7 8 6 6 8 8 5 8 9 8 7 7 8 9 10 10 8 8 9 10 10 10 12 14 17 18 19 21 20 19 20 19 22 21 21 21 21 20 20 19 18 18 18 17 17 17 16 16 15
8 8 9 9 8 8 8 8 9 8 8 7 6 5 5 3 3 3 4 4 4 5 5 6 6 7 7 6 7 7 7 8 6 7 7 8 7 12 9 3 5 7 6 3 4 8 9 10 10 10 10 9 8 8 9 9 11 16 13 15 17 19 21 22 21 17 16 18 20 20 20 20 20 20 20 20 19 19 19 18 18 18 17 17 16
9 9 9 9 7 8 8 7 7 7 7 7 6 6 6 5 4 4 4 4 6 5 5 6 7 7 8 7 7 7 8 6 6 7 6 6 7 10 7 3 11 6 3 3 5 3 8 9 10 10 9 9 8 9 9 9 9 14 16 12 18 18 20 21 20 19 18 18 18 19 19 20 20 20 20 19 19 19 19 19 19 19 19 18 17
7 8 7 8 7 6 5 6 6 7 7 7 6 6 5 6 5 6 5 5 4 4 5 6 6 7 6 7 7 7 8 6 7 6 7 7 9 9 9 6 5 8 3 2 2 2 4 8 10 10 9 9 10 9 9 11 10 15 18 12 13 18 19 19 21 22 20 19 20 18 18 18 20 20 19 20 19 19 19 19 19 20 19 19 18
7 6 7 8 8 9 8 7 7 6 6 7 7 6 6 6 5 5 5 5 5 4 5 5 7 7 7 7 8 7 7 7 6 7 7 9 9 9 7 12 11 8 8 4 4 8 8 3 8 9 9 9 9 9 11 10 13 16 15 12 10 17 20 23 24 25 23 21 21 20 19 19 19 20 20 19 20 20 20 20 20 21 20 20 19
7 8 8 8 8 9 9 9 8 7 6 6 6 6 6 6 6 6 7 4 5 6 6 5 6 7 7 7 6 8 7 7 7 7 7 8 8 7 7 9 11 15 9 10 7 7 6 8 3 8 9 10 10 10 12 12 10 14 16 10 10 12 18 24 26 26 26 24 23 22 21 21 20 20 20 20 20 20 19 20 20 20 20 19 19
5 6 7 8 8 8 8 8 9 8 8 7 6 6 5 5 5 6 6 6 5 6 6 6 7 6 6 7 7 7 7 6 6 6 7 7 7 7 8 10 9 11 12 12 13 8 4 10 7 5 11 11 11 10 10 10 12 13 10 11 12 11 13 23 26 26 27 27 25 24 23 23 22 22 22 22 21 21 21 21 21 21 21 20 20
5 5 5 6 6 7 7 8 8 7 7 7 7 7 6 6 5 5 5 4 5 5 5 5 7 6 7 7 6 7 7 6 7 7 7 8 8 7 7 8 8 12 12 12 16 7 5 4 8 6 5 10 10 9 9 11 15 15 11 12 12 12 14 21 23 25 26 28 27 26 25 24 23 23 23 23 22 22 22 22 21 21 22 21 22
6 6 6 6 6 6 5 6 7 7 7 7 7 7 7 7 7 7 6 4 5 6 6 4 6 5 7 8 8 8 7 7 7 7 7 7 7 7 7 6 8 11 12 11 15 9 7 8 8 8 8 8 9 10 8 9 11 14 12 11 12 16 18 17 21 22 25 27 25 27 26 25 25 24 24 23 23 23 23 22 22 21 22 23 21
5 5 6 6 7 7 7 6 7 6 7 7 7 6 6 6 6 7 8 7 6 7 7 5 4 5 7 8 9 8 8 7 7 7 7 7 7 7 7 7 9 9 9 11 14 18 4 7 7 9 11 10 8 10 10 8 10 15 10 11 13 15 12 10 18 23 24 24 24 28 26 25 26 26 25 24 24 24 24 23 22 22 22 22 23
4 6 6 6 5 6 6 7 7 7 7 8 6 6 6 7 7 6 7 8 7 8 6 8 6 5 6 8 9 9 8 8 8 8 7 7 6 7 7 7 8 7 8 10 14 18 9 5 4 6 7 7 6 8 10 10 8 9 11 11 11 10 11 11 12 20 24 24 24 26 26 26 26 26 26 25 24 25 24 24 24 23 23 23 24
6 8 8 7 6 6 7 8 8 7 7 7 8 6 7 7 7 6 7 7 8 8 7 8 8 7 6 7 9 9 8 9 9 8 8 8 7 7 7 7 8 9 7 9 13 13 17 6 7 4 4 5 10 5 11 12 11 9 11 12 10 11 11 11 11 12 23 25 25 24 26 26 26 27 27 26 26 25 25 25 24 24 23 23 24
7 6 7 8 9 9 9 9 9 9 9 8 7 7 8 8 9 9 7 8 8 9 9 8 8 8 9 9 9 8 7 8 9 8 8 8 8 8 9 7 9 9 8 10 11 14 15 12 6 8 6 5 10 9 10 11 12 12 13 13 12 11 11 12 12 11 14 22 24 25 26 26 26 27 26 26 26 25 25 25 25 24 24 24 24
8 7 6 7 7 8 9 10 10 10 11 10 10 9 9 8 9 10 10 9 9 9 10 10 9 8 8 10 10 9 8 9 10 9 8 8 8 8 9 8 8 9 8 8 11 12 12 13 9 8 5 7 9 7 5 8 9 9 11 10 9 11 10 9 11 11 12 21 24 26 26 25 26 26 26 26 26 26 26 26 25 25 25 25 25
7 6 7 5 6 7 8 10 11 11 11 11 11 12 11 9 10 10 11 10 10 10 10 10 10 9 9 10 11 9 8 9 10 9 9 10 9 9 10 9 9 9 7 9 10 10 12 14 12 6 6 7 6 5 6 8 7 8 6 10 11 12 11 10 8 8 7 16 20 23 24 24 25 26 27 26 26 26 26 26 26 26 25 26 25
8 7 8 8 7 9 9 8 8 9 10 11 12 12 12 11 11 11 11 11 12 12 11 11 10 9 10 11 11 9 9 10 11 10 9 11 10 10 11 10 9 8 9 9 9 10 11 14 12 11 6 8 6 7 7 9 9 9 8 8 6 7 8 8 9 8 8 9 10 13 19 21 24 27 27 27 27 27 27 27 26 26 25 24 24
8 8 7 8 8 8 10 10 10 11 11 10 10 11 11 10 10 12 13 13 12 11 12 12 12 11 11 11 12 11 11 11 12 12 11 11 10 11 11 11 9 9 10 10 10 11 12 13 12 11 11 8 9 11 7 8 10 11 12 10 10 8 6 10 11 9 9 10 11 15 14 14 18 17 22 27 26 27 27 27 26 27 24 23 23
8 8 9 10 10 9 10 10 11 10 10 11 11 11 10 10 11 11 11 12 13 13 13 13 12 12 13 13 12 12 13 12 12 12 11 11 10 11 10 9 9 10 11 10 10 10 11 12 12 12 10 10 7 8 1 5 8 9 10 9 12 10 11 11 12 12 11 10 11 10 11 10 12 14 16 23 28 27 27 26 27 25 25 23 24
7 7 8 9 11 12 11 10 11 10 10 11 9 9 10 12 12 13 13 14 14 14 14 14 14 13 12 12 13 13 14 16 20 18 16 14 10 11 11 10 10 11 10 9 10 10 11 11 12 11 10 10 10 9 8 9 13 15 6 7 11 12 9 8 10 10 8 10 10 9 10 12 11 11 12 13 15 23 22 25 20 26 25 24 26
9 9 10 10 10 11 12 12 11 10 10 9 11 19 20 14 13 12 12 13 13 13 15 15 15 15 15 14 13 19 20 21 21 22 22 22 21 17 14 11 10 11 10 11 11 10 10 12 12 11 11 12 12 11 11 12 9 4 7 12 14 9 5 10 10 10 10 9 8 10 11 8 10 12 12 14 13 15 13 15 15 17 22 28 28
11 11 10 11 11 10 11 11 12 11 11 11 23 25 25 28 19 14 14 14 14 15 14 15 16 16 15 15 14 16 18 17 17 21 22 24 23 24 25 24 19 14 11 12 12 11 11 12 12 11 12 14 15 10 11 10 8 11 11 10 11 9 11 12 15 7 9 11 11 9 10 9 10 14 14 15 14 12 14 14 20 24 26 29 29
12 11 12 11 12 11 10 11 12 12 12 19 26 26 27 28 25 18 15 15 14 14 14 15 14 14 15 15 13 13 13 14 14 14 17 21 23 25 26 25 25 25 23 16 14 12 12 12 13 14 12 14 14 10 9 9 9 8 10 10 12 13 13 13 14 14 6 15 11 10 14 9 11 13 14 14 13 12 14 15 23 26 28 29 30
12 12 12 13 12 11 11 13 12 13 13 20 24 26 26 26 27 23 14 14 14 13 14 14 14 15 14 14 12 12 11 18 17 15 15 15 17 24 25 26 26 25 22 26 26 19 13 14 13 15 14 13 15 12 10 9 7 12 11 12 12 12 12 14 15 12 5 13 11 12 15 13 13 15 16 15 13 12 12 16 23 26 27 29 29
11 12 13 13 14 13 13 13 13 14 15 19 25 27 27 27 27 24 15 14 15 15 16 15 15 13 14 14 13 13 11 13 13 15 16 16 15 14 14 14 14 18 22 25 26 27 24 17 15 17 16 14 15 13 11 7 11 12 11 13 11 12 13 16 14 8 6 13 17 13 12 10 12 13 16 14 10 10 12 16 24 26 28 29 28
10 12 11 12 11 11 11 12 12 16 15 24 25 26 25 25 26 23 16 14 12 14 15 16 15 15 15 15 15 16 15 13 13 15 17 17 16 16 15 14 14 15 15 15 15 15 15 15 16 18 19 17 15 15 13 10 13 12 13 13 14 14 14 13 11 9 8 12 13 11 15 12 9 11 15 13 10 12 12 15 24 27 29 30 31
9 9 10 10 11 13 11 11 12 15 15 23 24 25 25 25 27 16 14 15 14 14 15 15 13 14 14 15 15 17 17 18 20 31 28 20 17 17 18 18 16 15 15 12 17 16 16 15 15 16 16 17 16 15 14 12 11 11 9 9 9 10 11 12 14 10 12 8 12 13 11 10 8 14 15 9 9 13 12 11 19 27 29 30 31
10 9 10 9 10 10 13 11 12 14 15 19 24 26 25 27 21 13 14 12 13 13 14 15 18 17 16 15 16 14 15 15 22 29 30 28 19 19 18 18 17 15 16 14 18 22 24 26 25 23 23 23 23 21 21 24 17 11 8 9 12 9 12 13 14 12 12 9 10 13 11 11 7 12 11 6 11 13 12 12 13 21 27 29 31
11 9 9 10 8 9 11 13 11 15 15 18 25 25 26 26 22 16 13 13 15 15 13 12 13 13 16 27 24 17 17 18 26 31 31 26 20 19 18 18 18 17 17 15 13 12 18 24 27 28 28 27 26 26 24 24 25 19 12 15 12 11 14 13 16 13 9 8 11 14 10 14 5 6 5 1 4 7 9 10 10 11 20 23 29
11 9 10 10 9 8 9 12 18 19 15 17 23 24 26 25 20 14 14 14 15 15 15 17 15 14 15 16 25 24 23 24 33 31 31 26 20 19 19 18 19 19 18 16 16 15 13 12 14 15 17 21 20 18 17 24 25 21 16 15 12 13 13 14 14 10 11 12 12 15 13 10 8 5 8 4 6 5 5 7 9 10 11 11 14
Wind_Direction
179 182 161 188 178 178 175 181 174 172 163 178 165 163 162 163 168 171 179 185 206 242 236 232 188 173 160 172 169 178 163 149 160 173 191 189 266 329 339 338 312 309 309 267 204 213 211 208 213 205 202 209 183 222 189 197 195 200 201 197 172 149 160 177 180 170 168 167 165 162 157 156 153 156 155 150 147 146 139 138 117 103 103 96 95
180 173 175 186 181 182 181 178 179 171 174 178 184 164 168 168 169 172 180 189 190 225 188 200 208 197 192 175 182 188 184 169 173 176 189 195 237 289 340 328 324 306 306 317 269 216 210 214 209 214 209 213 193 215 217 201 215 202 199 217 173 162 181 184 188 183 186 177 174 166 160 156 156 156 148 152 151 147 148 145 137 134 146 153 139
177 175 182 178 179 179 188 168 180 186 182 180 170 175 166 176 176 179 185 187 204 196 183 177 194 206 211 183 202 190 200 200 165 171 175 207 227 246 299 340 335 337 351 282 291 249 218 215 213 212 209 204 216 208 212 221 212 206 204 210 190 177 198 196 195 185 190 179 174 167 162 156 154 155 154 152 147 148 147 144 140 134 128 136 142
175 176 178 175 179 182 178 179 192 182 183 170 171 168 172 177 178 181 187 183 198 195 200 168 190 207 201 208 198 198 207 199 185 179 195 199 216 228 257 307 353 22 17 17 75 16 20 312 225 207 207 207 212 211 219 206 226 218 214 205 202 183 191 209 202 196 187 182 180 171 169 161 159 161 163 166 162 152 145 157 155 146 142 142 143
183 178 178 178 179 181 185 193 188 180 179 168 163 159 154 162 185 165 173 181 185 206 195 187 185 213 204 218 194 216 218 195 203 189 196 202 209 205 207 242 340 22 33 27 21 30 38 17 316 207 211 213 210 212 217 202 208 225 214 222 210 192 184 207 198 201 196 186 183 175 177 169 169 172 175 173 174 164 160 162 159 156 150 152 145
174 180 176 176 182 189 188 193 189 179 168 159 170 166 168 170 188 166 193 187 197 200 184 201 217 207 207 209 199 212 205 210 200 201 195 203 203 198 199 198 198 137 21 30 31 24 68 41 14 261 212 224 219 210 218 210 208 220 223 214 212 201 195 200 201 210 197 191 184 185 179 177 180 185 183 185 178 168 173 169 172 167 158 154 149
180 174 181 177 180 192 198 198 177 170 174 178 168 173 171 185 168 186 190 210 206 204 199 203 196 206 210 197 208 214 211 211 209 207 199 205 188 207 206 196 196 174 139 73 28 23 31 71 90 152 215 223 221 218 214 213 194 220 227 220 223 215 204 197 211 204 201 196 193 187 190 185 195 192 193 193 192 184 180 182 173 170 169 159 154
177 173 177 184 185 192 202 179 175 168 179 174 168 179 182 181 189 172 177 218 208 226 216 208 207 209 211 203 218 205 210 218 214 215 215 184 198 206 211 211 198 192 191 175 150 23 63 58 88 79 61 14 216 212 209 206 202 213 229 227 219 216 216 204 202 205 197 202 201 202 199 193 204 200 200 197 198 194 189 192 178 173 175 170 165
176 179 176 184 190 194 189 181 167 173 176 182 188 184 174 180 190 201 186 191 202 221 225 219 211 218 211 215 225 213 217 218 219 218 194 196 207 212 213 218 212 207 192 195 178 120 70 74 66 69 45 26 9 208 207 206 208 216 222 224 220 219 222 212 220 209 198 204 209 212 209 202 206 208 204 202 201 200 194 194 188 181 176 177 169
173 175 181 184 189 187 170 168 166 171 177 179 199 173 178 174 192 207 199 182 201 206 219 228 228 220 228 229 240 236 239 237 240 231 206 219 221 212 211 211 208 214 206 202 199 189 167 131 112 80 62 10 345 232 206 216 227 224 226 223 222 222 220 215 222 219 189 208 213 214 215 212 214 210 206 204 202 207 205 204 199 187 179 175 175
160 162 171 175 178 176 171 176 169 168 167 179 176 168 176 196 195 205 212 217 198 210 199 183 219 234 238 251 276 254 259 256 251 244 230 224 217 220 210 223 213 211 210 210 213 204 195 194 160 169 217 234 262 227 211 204 221 245 273 244 224 218 219 214 219 215 189 216 217 214 216 219 220 217 211 207 209 208 210 204 198 198 187 183 177
145 146 155 168 178 188 186 164 167 158 167 174 184 178 191 195 215 190 199 225 74 169 133 140 77 89 287 299 263 258 268 251 249 242 238 234 232 211 211 222 212 208 212 214 209 213 210 209 203 208 214 237 247 242 229 231 275 271 254 269 233 215 219 216 223 199 201 216 219 218 221 225 221 220 217 212 213 216 213 209 203 201 198 191 186
49 78 153 154 190 120 139 161 160 174 181 199 194 197 197 193 184 176 184 203 244 157 160 132 135 259 349 317 300 280 272 271 252 246 240 237 231 220 222 208 216 207 214 205 208 214 216 216 217 214 218 222 241 247 248 239 239 252 252 253 249 215 222 218 220 211 215 215 216 221 225 224 224 221 219 217 218 218 217 214 208 206 203 200 195
113 114 99 136 162 152 187 196 176 201 210 198 180 189 172 173 152 192 214 195 223 180 180 127 232 208 200 290 307 289 262 264 254 245 232 235 226 224 218 211 216 214 210 201 214 213 217 219 219 221 224 222 228 234 244 253 251 250 247 245 248 229 222 223 216 213 216 215 214 223 225 224 224 222 221 219 219 220 217 215 212 208 205 205 203
29 36 45 79 126 164 222 160 202 197 192 207 185 197 195 192 181 191 212 256 246 197 185 199 193 117 113 50 277 280 306 266 253 239 221 224 226 228 220 219 220 208 201 202 217 218 221 217 220 219 223 223 224 226 227 233 236 244 253 260 267 262 235 225 220 219 217 212 220 221 224 223 224 222 220 220 220 222 218 215 214 213 209 208 206
24 28 22 23 32 339 23 164 211 186 216 220 202 216 201 197 198 217 175 213 225 240 193 208 149 133 264 214 237 160 306 257 237 241 199 218 215 226 218 223 221 220 204 215 215 216 221 209 217 217 219 219 220 222 225 228 236 242 246 254 266 264 263 266 240 219 219 212 221 222 222 222 220 221 223 220 220 222 220 217 215 215 217 210 208
37 39 36 20 22 24 11 2 303 229 212 236 227 224 216 216 207 203 196 203 229 232 229 205 221 224 175 88 344 287 235 260 9 280 205 213 228 223 222 220 217 214 213 228 218 216 213 215 218 218 220 216 219 220 222 226 229 231 237 241 246 254 265 261 264 236 215 214 222 218 226 222 219 218 219 220 220 221 221 218 215 216 218 211 211
33 32 41 37 18 29 29 3 331 324 218 254 286 303 258 232 216 212 217 226 223 215 244 235 225 235 235 217 145 184 254 277 51 280 321 241 254 227 226 225 218 215 222 228 222 221 209 219 212 219 215 215 217 218 217 222 222 224 226 234 234 243 250 254 253 259 222 214 219 220 222 223 218 217 218 217 218 219 221 221 217 215 219 214 214
355 5 6 12 16 19 36 39 350 297 301 279 271 254 254 245 248 224 230 229 223 235 224 235 245 254 250 253 259 188 149 43 267 335 314 317 250 231 240 233 229 229 229 230 227 222 222 216 217 215 214 215 215 218 219 223 222 219 223 226 232 235 240 244 251 256 253 220 219 214 219 221 220 218 222 220 217 217 218 218 217 217 217 217 215
18 10 7 1 354 350 8 14 1 317 166 224 252 271 289 286 252 249 255 245 226 234 243 226 215 238 217 243 254 251 194 182 174 244 265 295 303 318 281 244 240 240 236 235 225 221 223 218 219 213 215 217 214 214 217 219 221 224 227 227 230 231 234 239 242 246 255 251 218 214 217 215 218 218 218 220 222 220 218 217 217 218 218 218 219
25 23 20 14 8 357 347 343 345 346 45 294 289 301 278 278 283 265 241 240 224 232 238 242 226 241 246 251 243 250 255 243 227 165 254 292 277 244 268 300 236 249 244 235 235 227 222 218 211 213 213 217 210 212 213 214 219 220 225 227 228 230 231 232 238 240 245 251 220 215 217 212 214 217 218 218 218 219 218 220 221 219 218 218 218
14 19 18 12 11 7 1 350 341 336 348 302 296 306 294 279 269 263 263 259 251 237 235 246 241 246 229 247 241 263 266 275 258 256 256 206 256 272 235 234 247 244 232 234 230 228 225 220 215 216 218 216 210 210 208 214 216 215 224 224 227 230 230 231 233 237 240 238 209 211 214 214 211 216 219 220 218 218 219 220 222 222 221 219 219
14 14 19 10 6 9 8 357 348 343 333 337 323 306 298 291 287 287 273 257 261 255 254 255 257 256 248 234 240 225 237 234 240 236 239 257 272 267 264 229 235 269 257 244 239 232 224 218 220 221 219 219 214 207 209 215 214 216 212 219 225 227 230 230 230 230 231 222 199 201 214 216 213 215 217 217 218 220 218 221 220 221 222 220 220
22 18 15 7 6 3 5 9 7 360 351 339 330 325 316 317 302 290 281 270 273 270 260 259 254 254 254 244 244 237 241 239 234 225 229 248 244 266 269 291 282 237 268 308 265 231 221 221 224 224 222 219 214 211 214 214 219 218 215 220 222 223 226 227 224 213 208 203 199 201 209 215 213 215 217 218 216 218 220 219 220 221 221 220 219
11 12 7 4 4 9 7 8 3 2 355 356 340 336 335 328 317 309 290 283 270 264 264 255 249 251 253 250 246 245 245 241 235 239 241 240 240 264 258 200 262 281 282 251 261 246 225 230 225 227 224 218 217 211 214 214 219 219 215 220 221 222 224 227 221 210 200 199 199 199 202 207 209 211 213 215 218 219 220 221 222 222 222 222 220
8 11 351 354 5 7 6 7 6 2 4 357 353 343 340 334 325 319 310 294 291 275 266 269 268 262 264 268 261 248 249 238 237 231 237 241 250 245 268 260 223 266 277 279 275 259 268 228 225 225 220 219 219 214 211 215 219 219 214 214 221 223 223 227 223 216 203 201 199 198 201 205 207 208 210 214 217 220 221 223 223 225 223 223 223
12 353 358 4 1 1 4 7 5 3 2 359 353 348 344 340 333 318 311 304 302 291 277 273 275 274 269 258 263 262 256 248 241 240 228 232 241 243 237 269 272 251 264 243 271 221 242 283 224 229 222 222 221 217 217 216 219 215 212 213 219 223 223 224 223 219 215 206 205 202 201 203 207 207 209 213 216 218 222 224 224 225 226 224 223
3 2 359 4 1 360 358 358 355 358 359 357 353 349 341 341 329 330 321 313 316 308 292 286 276 272 270 273 273 266 257 252 245 245 238 235 235 241 228 243 258 275 260 266 241 257 202 235 281 221 216 220 222 218 221 220 221 214 208 210 216 222 222 222 222 220 217 213 209 206 203 203 206 209 210 210 214 218 221 227 228 226 225 225 224
358 1 355 356 357 357 353 351 351 350 349 351 348 345 342 335 328 321 315 312 319 305 301 295 283 279 277 268 263 271 268 257 250 249 249 249 240 237 223 234 238 254 268 267 261 247 243 206 230 245 205 216 219 218 217 216 220 209 204 209 215 219 218 220 221 221 219 217 215 210 208 205 205 208 211 212 214 216 219 222 228 228 223 222 221
353 344 348 346 346 350 346 343 343 343 343 339 343 339 341 334 323 310 293 303 303 298 292 288 287 286 281 283 272 269 266 266 254 243 245 245 247 238 235 237 229 244 255 263 270 212 247 226 214 236 210 220 219 221 213 220 220 208 209 210 214 218 215 217 219 221 220 220 220 217 210 207 206 208 210 212 212 215 218 220 223 228 223 221 220
350 349 347 343 341 340 341 333 334 334 333 334 334 334 337 332 330 322 315 316 309 300 290 288 284 287 285 284 283 275 269 266 262 253 244 246 246 243 245 234 238 240 252 258 272 257 172 229 231 228 225 219 212 220 218 223 221 210 210 213 217 220 217 219 221 222 222 221 220 221 214 209 207 207 209 210 211 213 216 218 220 224 224 221 219
340 339 341 339 337 336 333 327 321 321 321 321 325 323 326 320 317 322 316 322 314 303 301 291 279 280 281 280 277 276 275 271 269 261 254 240 239 245 241 239 244 239 246 253 255 266 176 227 216 224 222 224 208 211 218 222 223 214 213 216 221 221 220 221 223 223 222 221 219 221 216 210 209 207 208 208 211 213 215 216 217 218 218 217 216
332 332 333 330 326 326 323 323 319 315 313 311 312 312 314 310 310 306 307 310 309 303 301 300 290 272 269 273 275 272 271 270 267 266 264 251 241 240 239 242 248 241 235 249 258 268 263 240 234 228 231 216 239 208 217 219 217 217 215 220 218 215 216 217 220 223 222 221 219 219 215 212 210 208 207 207 210 212 213 214 215 215 216 215 215
334 327 328 325 321 320 322 319 319 313 308 305 306 306 301 301 299 299 302 301 297 294 294 293 295 293 277 273 276 277 268 263 266 265 260 262 250 246 239 230 242 246 224 242 257 263 271 249 270 254 274 197 236 193 208 211 217 209 216 218 216 213 214 215 217 221 221 222 219 218 217 213 212 211 208 207 208 209 211 213 214 214 214 214 215
319 318 315 319 318 321 318 314 313 312 309 309 307 306 303 302 298 295 290 290 290 289 288 280 280 285 290 282 276 275 275 272 267 260 259 257 253 249 250 230 241 243 233 229 251 261 266 267 230 249 222 224 215 221 209 218 217 209 213 214 211 213 216 214 216 221 218 220 221 219 218 216 214 213 210 209 207 208 209 212 213 214 213 214 213
304 303 309 305 304 304 304 304 306 307 309 308 308 305 300 299 298 295 292 286 282 279 278 280 279 276 273 281 281 275 274 274 273 269 261 256 253 252 252 246 240 246 234 234 235 252 265 271 245 232 222 218 238 241 223 228 221 219 218 222 218 221 219 218 220 222 219 220 221 220 219 219 217 215 213 210 208 208 209 211 213 213 213 213 213
299 299 298 294 292 293 292 297 302 303 302 303 302 301 300 297 295 295 294 291 286 281 277 275 274 273 273 268 272 275 272 271 272 269 264 260 255 253 253 250 245 243 238 233 242 241 256 258 264 229 234 232 244 227 210 213 227 232 230 223 217 219 218 218 222 227 227 226 227 225 223 221 220 217 214 211 210 209 209 210 212 212 212 213 213
295 297 298 303 298 295 291 284 281 282 288 293 295 296 297 300 298 295 293 291 291 290 287 281 273 268 270 270 268 264 263 263 265 265 263 262 260 256 255 254 248 245 245 241 239 245 247 256 256 260 229 238 244 231 204 201 210 220 231 233 235 226 217 220 222 219 217 217 218 225 227 225 222 219 216 212 211 211 211 210 211 212 212 213 212
294 295 293 291 292 287 289 291 289 288 288 283 281 281 284 287 290 292 294 292 287 286 285 286 285 281 272 268 268 265 260 256 259 259 260 262 260 257 254 256 250 249 249 246 243 243 247 255 257 247 252 232 224 243 217 197 212 213 215 214 227 220 217 215 223 218 216 223 226 225 225 226 223 218 217 217 213 213 213 212 211 211 211 211 211
295 294 296 297 296 295 291 290 288 287 286 286 285 285 286 288 287 284 284 286 288 287 284 280 278 277 278 275 270 264 259 257 257 258 253 255 256 260 257 253 251 248 249 251 248 246 249 252 253 257 244 246 231 245 156 171 221 237 223 207 220 214 215 219 220 213 214 214 218 221 227 226 223 222 221 223 222 217 215 214 212 210 209 208 209
296 293 294 295 298 297 296 292 292 290 286 283 285 287 291 292 289 288 288 286 286 286 285 286 284 279 273 269 267 267 261 258 257 257 256 251 251 259 255 250 249 250 249 250 248 247 250 252 257 252 252 244 236 222 211 210 211 225 188 186 228 223 211 221 236 232 218 211 221 218 220 215 217 217 216 219 221 218 217 212 211 209 207 208 209
307 304 301 300 298 299 300 299 295 294 291 290 287 292 295 294 293 291 289 288 287 286 286 286 283 281 279 275 269 264 264 264 262 260 260 260 255 250 255 251 244 247 245 247 247 245 248 252 252 253 250 249 241 226 227 226 226 201 175 200 221 215 168 224 238 224 208 205 209 221 224 211 212 223 219 224 225 215 218 211 209 205 206 208 209
309 308 307 305 302 299 300 301 301 299 297 298 300 301 302 301 300 299 296 293 289 286 283 280 280 280 279 278 277 277 274 269 265 263 260 259 260 260 256 252 247 243 246 244 243 241 244 248 253 251 250 254 250 233 226 230 210 206 213 206 216 204 204 207 231 225 193 187 211 220 231 209 204 221 221 223 220 213 217 215 208 203 206 208 208
314 311 308 306 306 309 308 307 302 299 297 298 301 304 303 301 299 298 296 291 287 282 281 280 279 277 276 276 276 277 274 272 270 268 265 262 260 259 260 260 255 248 242 238 243 246 239 245 247 246 247 248 256 244 232 221 216 208 219 213 212 211 214 220 229 229 180 179 192 205 233 206 200 221 227 224 219 214 218 217 210 205 205 206 208
316 313 312 315 310 313 313 308 304 303 301 304 307 307 304 302 300 297 292 288 284 280 277 275 275 276 277 275 272 268 270 271 271 270 270 268 262 261 259 261 261 257 250 245 242 240 241 243 245 250 240 247 252 247 232 222 194 213 208 219 216 220 222 228 230 226 147 177 180 213 229 215 188 214 225 224 214 209 218 219 216 214 210 208 207
311 309 309 309 309 311 312 311 307 306 303 311 311 309 307 305 301 298 289 284 281 279 277 273 271 270 269 273 275 273 267 267 267 269 269 268 268 265 261 258 257 258 257 253 252 248 242 241 241 248 248 238 245 247 235 199 204 215 212 221 213 221 221 230 234 220 158 177 189 196 233 220 192 207 226 228 204 210 216 214 216 216 216 213 210
310 307 309 309 307 309 310 311 310 305 304 309 310 308 308 307 303 301 292 287 284 280 277 274 272 271 269 268 267 266 268 267 267 270 272 270 270 270 267 260 254 253 252 252 250 250 247 243 242 244 249 246 242 245 241 217 219 221 214 214 210 216 223 235 245 223 202 198 190 184 227 222 182 200 228 219 199 212 217 212 215 217 217 216 215
294 294 295 298 301 305 308 307 303 299 301 307 309 308 309 307 304 300 293 289 286 283 281 280 274 270 266 264 265 267 265 265 264 269 270 273 271 268 266 265 263 256 251 243 245 243 245 244 245 246 248 247 243 238 238 231 231 235 229 228 220 215 217 225 232 220 223 193 197 196 227 235 166 198 226 206 190 215 214 207 215 218 218 216 216
295 296 295 295 300 300 301 299 297 296 299 306 306 307 306 304 304 296 290 282 277 277 278 282 284 285 288 291 291 293 290 286 282 279 277 277 275 270 264 260 259 261 262 258 248 247 249 249 248 246 247 249 247 241 237 237 230 223 222 219 223 209 219 227 235 224 226 178 203 206 220 235 183 199 220 186 196 215 212 205 210 216 218 219 218
295 292 294 294 289 290 292 294 295 297 297 302 304 304 304 301 300 297 294 288 284 282 278 269 270 271 271 275 275 270 270 271 275 275 275 274 270 268 268 267 266 264 264 264 263 254 244 249 253 253 253 253 252 249 243 240 237 226 216 224 220 210 223 221 233 225 224 195 200 193 208 229 181 191 185 85 197 233 220 213 205 207 217 222 220
287 292 293 291 289 285 283 285 295 296 293 297 301 302 301 300 300 294 293 292 291 292 295 294 293 292 290 288 285 283 283 282 280 278 274 271 269 272 273 272 269 265 260 260 261 261 259 254 251 254 255 254 253 249 244 243 239 233 224 226 222 220 221 226 232 233 235 226 208 181 202 222 189 198 168 131 219 251 214 209 202 206 206 210 215